Flag for Tuvalu Weather past 2 weeks in Funafuti, Tuvalu

Now
81 °F

Sprinkles. Partly cloudy.


Feels Like: 86 °F
Forecast: 81 / 87 °F
Wind: 9 mph from East

Location: Funafuti

Current Time: Jul 25, 2014 at 7:40:18 PM

Latest Report: Jul 25, 2014 at 7:00 PM


Visibility: N/A

Pressure: 29.83 "Hg

Humidity: 84%

Dew point: 75 °F

Location of FunafutiLocation

Historic Weather in Funafuti — Graph

°F

Funafuti temperature yesterday

Maximum temperature yesterday: 90 °F (at 12:00 PM)
Minimum temperature yesterday: 81 °F (at 4:00 AM)
Average temperature yesterday: 85 °F

Past Weeks' High & Low Weather Summary

 TemperatureHumidityPressure
High90 °F (Jul 15, 1:00 PM)94% (Jul 16, 1:00 AM)29.92 "Hg (Jul 16, 1:00 AM)
Low75 °F (Jul 16, 1:00 AM)59% (Jul 13, 10:00 AM)27.26 "Hg (Jul 20, 12:00 AM)
Average84 °F76%29.81 "Hg
* Reported Jul 10 6:00 PM — Jul 25 6:00 PM, Funafuti, Weather by CustomWeather, © 2014

Note: Actual official high and low records may vary slightly from our data, if they occured in-between our weather recording intervals... More about our weather records

Advertising

Funafuti weather history for previous 24 hours

 ConditionsComfort  
Time TempWeatherWind HumidityBarometerVisibility
6:00 PM
Jul 25
81 °FScattered showers. Partly cloudy.1 mph84%29.83 "HgN/A
5:00 PM84 °FScattered showers. Broken clouds.3 mph79%29.80 "HgN/A
4:00 PM86 °FBroken clouds.6 mph75%29.80 "HgN/A
3:00 PM86 °FScattered clouds.5 mph75%29.80 "HgN/A
2:00 PM88 °FScattered clouds.5 mph75%29.83 "HgN/A
1:00 PM90 °FScattered clouds.3 mph67%29.86 "HgN/A
12:00 PM88 °FScattered clouds.3 mph66%29.89 "HgN/A
11:00 AM90 °FScattered clouds.8 mph67%29.89 "HgN/A
10:00 AM88 °FScattered clouds.7 mph70%29.89 "HgN/A
9:00 AM86 °FPassing clouds.5 mph75%29.89 "HgN/A
8:00 AM84 °FScattered clouds.7 mph79%29.89 "HgN/A
7:00 AM82 °FSprinkles. Scattered clouds.6 mph84%29.86 "HgN/A
6:00 AM82 °FScattered showers. Passing clouds.7 mph79%29.83 "HgN/A
4:00 AM81 °FPassing clouds.3 mph89%29.80 "HgN/A
3:00 AM82 °FPassing clouds.3 mph79%29.53 "HgN/A
2:00 AM81 °FPassing clouds.1 mph89%29.83 "HgN/A
1:00 AM82 °FPassing clouds.2 mph84%29.83 "HgN/A
12:00 AM82 °FPassing clouds.No wind84%29.83 "HgN/A
11:00 PM
Jul 24
82 °FPassing clouds.No wind84%29.86 "HgN/A
10:00 PM82 °FPassing clouds.No wind79%29.86 "HgN/A
9:00 PM82 °FPassing clouds.No wind79%29.80 "HgN/A
8:00 PM84 °FPassing clouds.3 mph74%29.83 "HgN/A
7:00 PM84 °FPassing clouds.No wind74%29.83 "HgN/A
Weather by CustomWeather, © 2014

See weather overviewHow to use our weather pages